Location: Passo di Treia
(43.2833°N, 13.3333°E)
Time: 02:59:42
(UTC+00:00)

COSMOS 2428 - Pass Details

Date: 09 December 2019
Orbit: 844 x 858 km, 70.9° (Epoch: 20 January)

Event Time Altitude Azimuth Distance (km) Brightness Sun altitude
Rises 16:49:49 0° 229° (SW) 3,392 7.2 -13.8°
Reaches altitude 10° 16:52:27 10° 238° (WSW) 2,462 6.4 -14.3°
Maximum altitude 16:57:37 36° 304° (NW) 1,317 4.1 -15.2°
Drops below altitude 10° 17:02:51 10° 10° (N) 2,483 4.9 -16.1°
Enters shadow 17:04:20 - 16° (NNE) 3,002 5.3 -16.4°
